HKE843 ROAH-VHHH

Flight info

Callsign HKE843
Flight time 2h 11m
Altitude 36000
Route GANJU Y576 LILRA Y26 IGURU Q13 PICHU J7 HCN G581 ELATO V522 ABBEY
Aircraft A321/M-SDE3FGHIRWY/LB1

Departure

Time 2026-04-22 02:45
Airport Naha International Airport (ROAH)

Arrival

Time 2026-04-22 04:56
Airport Hong Kong International Airport (VHHH)
Time Latitude Longitude Altitude Speed Heading
2026-04-22 02:25 26.21006 127.64976 22 ft 0 kts 87°
2026-04-22 02:37 26.21006 127.64958 21 ft 1 kts 87°
2026-04-22 02:37 26.21006 127.64931 21 ft 4 kts 103°
2026-04-22 02:37 26.21016 127.64904 23 ft 4 kts 127°
2026-04-22 02:38 26.21035 127.64886 24 ft 4 kts 162°
2026-04-22 02:38 26.21059 127.64882 21 ft 4 kts 178°
2026-04-22 02:38 26.21066 127.64882 22 ft 0 kts 178°
2026-04-22 02:42 26.21048 127.64883 20 ft 7 kts 178°
2026-04-22 02:42 26.20995 127.64885 20 ft 8 kts 177°
2026-04-22 02:43 26.20933 127.64868 20 ft 13 kts 223°
2026-04-22 02:43 26.20916 127.64760 18 ft 16 kts 287°
2026-04-22 02:43 26.20979 127.64667 16 ft 16 kts 275°
2026-04-22 02:43 26.20954 127.64550 18 ft 16 kts 238°
2026-04-22 02:44 26.20856 127.64526 18 ft 16 kts 178°
2026-04-22 02:44 26.20600 127.64538 19 ft 70 kts 177°
2026-04-22 02:44 26.19894 127.64572 16 ft 131 kts 177°
2026-04-22 02:44 26.18835 127.64619 191 ft 161 kts 178°
2026-04-22 02:45 26.17735 127.64668 864 ft 159 kts 178°
2026-04-22 02:45 26.16605 127.64729 1394 ft 169 kts 177°
2026-04-22 02:45 26.15357 127.64792 1600 ft 193 kts 178°
2026-04-22 02:45 26.13951 127.64846 1892 ft 211 kts 178°
2026-04-22 02:46 26.12395 127.64894 2116 ft 237 kts 184°
2026-04-22 02:46 26.10723 127.64562 2674 ft 250 kts 195°
2026-04-22 02:46 26.09044 127.63981 3379 ft 256 kts 198°
2026-04-22 02:46 26.08433 127.63742 3651 ft 257 kts 199°
2026-04-22 02:47 26.08380 127.63721 3675 ft 257 kts 199°
2026-04-22 02:47 26.07241 127.63289 4215 ft 258 kts 199°
2026-04-22 02:47 26.06966 127.63182 4328 ft 259 kts 200°
2026-04-22 02:48 26.05306 127.62599 4901 ft 266 kts 200°
2026-04-22 02:48 26.03543 127.61915 5603 ft 270 kts 201°
2026-04-22 02:48 26.01749 127.61199 6268 ft 276 kts 202°
2026-04-22 02:48 25.99925 127.60482 6895 ft 281 kts 201°
2026-04-22 02:49 25.98061 127.59770 7563 ft 284 kts 202°
2026-04-22 02:49 25.96314 127.58765 8245 ft 283 kts 218°
2026-04-22 02:49 25.94880 127.57278 8943 ft 283 kts 233°
2026-04-22 02:49 25.93644 127.55575 9658 ft 284 kts 233°
2026-04-22 02:50 25.92389 127.53857 10262 ft 290 kts 233°
2026-04-22 02:50 25.91070 127.52056 10398 ft 313 kts 232°
2026-04-22 02:50 25.89644 127.50113 10543 ft 334 kts 232°
2026-04-22 02:50 25.88151 127.48080 10959 ft 343 kts 232°
2026-04-22 02:51 25.86633 127.46016 11541 ft 347 kts 232°
2026-04-22 02:51 25.85093 127.43929 12126 ft 350 kts 232°
2026-04-22 02:51 25.83566 127.41822 12718 ft 352 kts 236°
2026-04-22 02:51 25.82428 127.39418 13280 ft 353 kts 252°
2026-04-22 02:52 25.81686 127.36817 13860 ft 355 kts 253°
2026-04-22 02:52 25.80951 127.34181 14380 ft 358 kts 253°
2026-04-22 02:52 25.80221 127.31537 14921 ft 360 kts 254°
2026-04-22 02:52 25.79485 127.28866 15442 ft 363 kts 254°
2026-04-22 02:53 25.78744 127.26175 15995 ft 365 kts 253°
2026-04-22 02:53 25.77998 127.23478 16517 ft 367 kts 253°
2026-04-22 02:53 25.77246 127.20760 17045 ft 370 kts 254°
2026-04-22 02:53 25.76489 127.18021 17573 ft 372 kts 254°
2026-04-22 02:54 25.75727 127.15270 18098 ft 375 kts 254°
2026-04-22 02:54 25.74960 127.12496 18572 ft 377 kts 254°
2026-04-22 02:54 25.74189 127.09706 19014 ft 379 kts 253°
2026-04-22 02:54 25.73412 127.06900 19470 ft 381 kts 253°
2026-04-22 02:55 25.72628 127.04084 19948 ft 383 kts 253°
2026-04-22 02:55 25.71838 127.01255 20418 ft 385 kts 253°
2026-04-22 02:55 25.71045 126.98408 20876 ft 387 kts 253°
2026-04-22 02:55 25.70249 126.95551 21316 ft 389 kts 253°
2026-04-22 02:56 25.69446 126.92679 21739 ft 391 kts 253°
2026-04-22 02:56 25.68641 126.89796 22154 ft 393 kts 253°
2026-04-22 02:56 25.67832 126.86891 22563 ft 395 kts 253°
2026-04-22 02:56 25.67020 126.83978 22955 ft 397 kts 253°
2026-04-22 02:57 25.66202 126.81046 23341 ft 399 kts 253°
2026-04-22 02:57 25.65379 126.78099 23692 ft 401 kts 253°
2026-04-22 02:57 25.64550 126.75144 24008 ft 403 kts 253°
2026-04-22 02:57 25.63713 126.72163 24299 ft 406 kts 253°
2026-04-22 02:58 25.62874 126.69170 24602 ft 408 kts 253°
2026-04-22 02:58 25.62029 126.66160 24904 ft 410 kts 253°
2026-04-22 02:58 25.61178 126.63137 25202 ft 412 kts 253°
2026-04-22 02:58 25.60322 126.60096 25489 ft 415 kts 253°
2026-04-22 02:59 25.59462 126.57040 25788 ft 417 kts 253°
2026-04-22 02:59 25.58597 126.53967 26077 ft 419 kts 253°
2026-04-22 02:59 25.57729 126.50882 26380 ft 421 kts 254°
2026-04-22 02:59 25.56857 126.47780 26666 ft 423 kts 254°
2026-04-22 03:00 25.55978 126.44666 26957 ft 425 kts 254°
2026-04-22 03:00 25.55102 126.41571 27243 ft 427 kts 254°
2026-04-22 03:00 25.54210 126.38431 27529 ft 429 kts 254°
2026-04-22 03:00 25.53313 126.35274 27812 ft 431 kts 254°
2026-04-22 03:01 25.52414 126.32105 28093 ft 433 kts 254°
2026-04-22 03:01 25.51512 126.28914 28370 ft 435 kts 254°
2026-04-22 03:01 25.50609 126.25715 28640 ft 436 kts 254°
2026-04-22 03:01 25.49699 126.22503 28909 ft 438 kts 254°
2026-04-22 03:02 25.48779 126.19281 29190 ft 440 kts 254°
2026-04-22 03:02 25.47855 126.16049 29473 ft 442 kts 254°
2026-04-22 03:02 25.46925 126.12795 29760 ft 444 kts 254°
2026-04-22 03:02 25.45990 126.09534 30033 ft 445 kts 254°
2026-04-22 03:03 25.45057 126.06267 30320 ft 445 kts 254°
2026-04-22 03:03 25.44131 126.03026 30687 ft 443 kts 254°
2026-04-22 03:03 25.43199 125.99764 31071 ft 441 kts 254°
2026-04-22 03:03 25.42275 125.96539 31445 ft 438 kts 254°
2026-04-22 03:04 25.41357 125.93332 31827 ft 436 kts 254°
2026-04-22 03:04 25.40443 125.90144 32206 ft 434 kts 254°
2026-04-22 03:04 25.39529 125.86966 32593 ft 432 kts 254°
2026-04-22 03:04 25.38621 125.83813 32962 ft 430 kts 254°
2026-04-22 03:05 25.37714 125.80667 33333 ft 428 kts 254°
2026-04-22 03:05 25.36825 125.77586 33701 ft 426 kts 254°
2026-04-22 03:05 25.35914 125.74432 34072 ft 423 kts 254°
2026-04-22 03:05 25.34869 125.71390 34377 ft 424 kts 247°
2026-04-22 03:06 25.33434 125.68545 34671 ft 424 kts 243°
2026-04-22 03:06 25.31937 125.65743 34952 ft 423 kts 243°
2026-04-22 03:06 25.30443 125.62943 35248 ft 422 kts 243°
2026-04-22 03:06 25.28957 125.60160 35530 ft 420 kts 243°
2026-04-22 03:07 25.27470 125.57380 35827 ft 419 kts 243°
2026-04-22 03:07 25.25989 125.54609 35936 ft 419 kts 243°
2026-04-22 03:07 25.24512 125.51846 35976 ft 417 kts 243°
2026-04-22 03:08 25.21572 125.46333 35966 ft 416 kts 243°
2026-04-22 03:08 25.18630 125.40834 35966 ft 416 kts 243°
2026-04-22 03:09 25.15685 125.35336 35969 ft 416 kts 243°
2026-04-22 03:09 25.12752 125.29873 35965 ft 417 kts 243°
2026-04-22 03:10 25.09727 125.24412 35965 ft 420 kts 238°
2026-04-22 03:10 25.06228 125.19232 35965 ft 421 kts 237°
2026-04-22 03:11 25.02709 125.14068 35964 ft 422 kts 237°
2026-04-22 03:11 24.99179 125.08906 35964 ft 422 kts 237°
2026-04-22 03:12 24.96109 125.04660 35959 ft 423 kts 235°
2026-04-22 03:12 24.90460 124.97184 35962 ft 423 kts 234°
2026-04-22 03:13 24.86739 124.92217 35964 ft 423 kts 235°
2026-04-22 03:13 24.82986 124.87223 35967 ft 425 kts 231°
2026-04-22 03:14 24.78634 124.82753 35963 ft 429 kts 227°
2026-04-22 03:14 24.74207 124.78345 35963 ft 429 kts 227°
2026-04-22 03:15 24.69778 124.73943 35954 ft 429 kts 227°
2026-04-22 03:15 24.65351 124.69533 35961 ft 429 kts 227°
2026-04-22 03:16 24.60924 124.65122 35959 ft 430 kts 227°
2026-04-22 03:16 24.56494 124.60714 35961 ft 430 kts 227°
2026-04-22 03:17 24.52026 124.56276 35964 ft 430 kts 227°
2026-04-22 03:17 24.47612 124.51905 35970 ft 430 kts 227°
2026-04-22 03:18 24.43168 124.47498 35971 ft 431 kts 227°
2026-04-22 03:18 24.38718 124.43092 35970 ft 431 kts 227°
2026-04-22 03:19 24.34274 124.38692 35968 ft 431 kts 227°
2026-04-22 03:19 24.29827 124.34286 35965 ft 431 kts 227°
2026-04-22 03:20 24.25374 124.29881 35968 ft 431 kts 227°
2026-04-22 03:20 24.20914 124.25480 35969 ft 432 kts 227°
2026-04-22 03:21 24.16446 124.21083 35974 ft 432 kts 227°
2026-04-22 03:21 24.11982 124.16693 35975 ft 432 kts 227°
2026-04-22 03:22 24.07519 124.12296 35978 ft 432 kts 227°
2026-04-22 03:22 24.03050 124.07902 35980 ft 432 kts 227°
2026-04-22 03:23 23.98574 124.03510 35978 ft 432 kts 227°
2026-04-22 03:23 23.94346 123.98903 35976 ft 425 kts 238°
2026-04-22 03:24 23.91026 123.93594 35977 ft 423 kts 240°
2026-04-22 03:24 23.87720 123.88278 35971 ft 423 kts 240°
2026-04-22 03:25 23.84402 123.82959 35976 ft 424 kts 240°
2026-04-22 03:25 23.81084 123.77640 35978 ft 424 kts 240°
2026-04-22 03:26 23.77758 123.72316 35976 ft 424 kts 240°
2026-04-22 03:26 23.74426 123.66993 35973 ft 424 kts 240°
2026-04-22 03:27 23.71099 123.61676 35971 ft 425 kts 240°
2026-04-22 03:27 23.67769 123.56354 35971 ft 425 kts 240°
2026-04-22 03:28 23.64436 123.51030 35971 ft 425 kts 240°
2026-04-22 03:28 23.61099 123.45699 35972 ft 426 kts 240°
2026-04-22 03:29 23.57756 123.40371 35967 ft 426 kts 240°
2026-04-22 03:29 23.54402 123.35048 35970 ft 426 kts 240°
2026-04-22 03:30 23.51040 123.29718 35971 ft 427 kts 240°
2026-04-22 03:30 23.47681 123.24389 35969 ft 427 kts 240°
2026-04-22 03:31 23.44320 123.19058 35969 ft 427 kts 240°
2026-04-22 03:31 23.40954 123.13729 35965 ft 427 kts 240°
2026-04-22 03:32 23.37585 123.08393 35964 ft 428 kts 240°
2026-04-22 03:32 23.34233 123.03095 35967 ft 428 kts 239°
2026-04-22 03:33 23.30777 122.97765 35966 ft 429 kts 237°
2026-04-22 03:33 23.27086 122.92638 35962 ft 431 kts 235°
2026-04-22 03:34 23.23316 122.87577 35962 ft 431 kts 236°
2026-04-22 03:34 23.19575 122.82492 35960 ft 430 kts 236°
2026-04-22 03:35 23.15872 122.77382 35957 ft 430 kts 236°
2026-04-22 03:35 23.12204 122.72300 35959 ft 430 kts 236°
2026-04-22 03:36 23.08471 122.67154 35958 ft 431 kts 236°
2026-04-22 03:36 23.04783 122.62083 35961 ft 431 kts 236°
2026-04-22 03:37 23.01063 122.56980 35961 ft 431 kts 236°
2026-04-22 03:37 22.97337 122.51880 36097 ft 431 kts 236°
2026-04-22 03:38 22.95474 122.49331 36378 ft 430 kts 236°
2026-04-22 03:38 22.93617 122.46786 36648 ft 429 kts 236°
2026-04-22 03:38 22.91767 122.44252 36905 ft 428 kts 236°
2026-04-22 03:38 22.89914 122.41712 37144 ft 427 kts 236°
2026-04-22 03:39 22.88070 122.39188 37387 ft 427 kts 236°
2026-04-22 03:39 22.86228 122.36668 37600 ft 426 kts 236°
2026-04-22 03:39 22.84387 122.34153 37825 ft 425 kts 236°
2026-04-22 03:39 22.82550 122.31647 37935 ft 425 kts 236°
2026-04-22 03:40 22.78870 122.26630 37941 ft 424 kts 236°
2026-04-22 03:40 22.75208 122.21635 37939 ft 423 kts 236°
2026-04-22 03:41 22.71553 122.16641 37936 ft 423 kts 236°
2026-04-22 03:41 22.67891 122.11651 37940 ft 423 kts 235°
2026-04-22 03:42 22.64224 122.06662 37946 ft 424 kts 235°
2026-04-22 03:42 22.60548 122.01668 37952 ft 424 kts 235°
2026-04-22 03:43 22.56865 121.96667 37952 ft 425 kts 235°
2026-04-22 03:43 22.53171 121.91671 37951 ft 425 kts 235°
2026-04-22 03:44 22.49475 121.86683 37945 ft 425 kts 235°
2026-04-22 03:44 22.45783 121.81687 37941 ft 425 kts 235°
2026-04-22 03:45 22.42090 121.76687 37940 ft 426 kts 235°
2026-04-22 03:45 22.38393 121.71685 37936 ft 426 kts 235°
2026-04-22 03:46 22.34695 121.66686 37933 ft 426 kts 235°
2026-04-22 03:46 22.30995 121.61691 37936 ft 426 kts 235°
2026-04-22 03:47 22.27287 121.56692 37934 ft 427 kts 235°
2026-04-22 03:47 22.23573 121.51691 37941 ft 427 kts 235°
2026-04-22 03:48 22.19860 121.46692 37940 ft 427 kts 235°
2026-04-22 03:48 22.16165 121.41722 37947 ft 428 kts 235°
2026-04-22 03:49 22.12437 121.36713 37947 ft 428 kts 234°
2026-04-22 03:49 22.08704 121.31712 37948 ft 428 kts 234°
2026-04-22 03:50 22.04963 121.26714 37948 ft 428 kts 234°
2026-04-22 03:50 22.01224 121.21708 37953 ft 428 kts 237°
2026-04-22 03:51 21.98577 121.16074 37957 ft 420 kts 256°
2026-04-22 03:51 21.97387 121.09936 37955 ft 419 kts 261°
2026-04-22 03:52 21.96282 121.03774 37952 ft 419 kts 261°
2026-04-22 03:52 21.95164 120.97600 37954 ft 420 kts 261°
2026-04-22 03:53 21.94049 120.91424 37956 ft 420 kts 261°
2026-04-22 03:53 21.93047 120.85225 37949 ft 419 kts 268°
2026-04-22 03:54 21.93481 120.79011 37950 ft 417 kts 279°
2026-04-22 03:54 21.94170 120.73868 37947 ft 418 kts 278°
2026-04-22 03:55 21.94974 120.67669 37946 ft 418 kts 278°
2026-04-22 03:55 21.95778 120.61465 37948 ft 418 kts 278°
2026-04-22 03:56 21.96587 120.55259 37951 ft 419 kts 278°
2026-04-22 03:56 21.97401 120.49050 37949 ft 419 kts 278°
2026-04-22 03:57 21.98206 120.42828 37948 ft 419 kts 278°
2026-04-22 03:57 21.99002 120.36609 37943 ft 419 kts 278°
2026-04-22 03:58 21.99807 120.30380 37946 ft 420 kts 279°
2026-04-22 03:58 22.00608 120.24148 37942 ft 420 kts 278°
2026-04-22 03:59 22.01405 120.17916 37940 ft 420 kts 278°
2026-04-22 03:59 22.02200 120.11674 37940 ft 420 kts 278°
2026-04-22 04:00 22.02987 120.05435 37936 ft 420 kts 278°
2026-04-22 04:00 22.03774 119.99232 37938 ft 421 kts 278°
2026-04-22 04:01 22.04568 119.92937 37938 ft 421 kts 278°
2026-04-22 04:01 22.05353 119.86689 37934 ft 421 kts 278°
2026-04-22 04:02 22.06136 119.80476 37935 ft 421 kts 278°
2026-04-22 04:02 22.06923 119.74220 37934 ft 421 kts 278°
2026-04-22 04:03 22.07706 119.67958 37932 ft 421 kts 278°
2026-04-22 04:03 22.08486 119.61694 37932 ft 421 kts 278°
2026-04-22 04:04 22.09262 119.55435 37933 ft 421 kts 278°
2026-04-22 04:04 22.10034 119.49170 37942 ft 421 kts 278°
2026-04-22 04:05 22.10803 119.42908 37936 ft 421 kts 278°
2026-04-22 04:05 22.11572 119.36639 37940 ft 421 kts 278°
2026-04-22 04:06 22.12340 119.30376 37933 ft 421 kts 278°
2026-04-22 04:06 22.13106 119.24107 37931 ft 422 kts 278°
2026-04-22 04:07 22.13866 119.17838 37929 ft 422 kts 278°
2026-04-22 04:07 22.14621 119.11565 37932 ft 422 kts 278°
2026-04-22 04:08 22.15376 119.05291 37930 ft 422 kts 278°
2026-04-22 04:08 22.16146 118.99019 37928 ft 422 kts 278°
2026-04-22 04:09 22.16905 118.92745 37927 ft 422 kts 278°
2026-04-22 04:09 22.17654 118.86464 37932 ft 422 kts 278°
2026-04-22 04:10 22.18402 118.80182 37932 ft 422 kts 278°
2026-04-22 04:10 22.19145 118.73896 37934 ft 422 kts 278°
2026-04-22 04:11 22.19887 118.67618 37927 ft 422 kts 278°
2026-04-22 04:11 22.20632 118.61335 37929 ft 422 kts 278°
2026-04-22 04:12 22.21375 118.55051 37926 ft 422 kts 277°
2026-04-22 04:12 22.22106 118.48764 37926 ft 422 kts 277°
2026-04-22 04:13 22.22832 118.42513 37925 ft 422 kts 277°
2026-04-22 04:13 22.23562 118.36221 37927 ft 423 kts 277°
2026-04-22 04:14 22.24297 118.29888 37926 ft 423 kts 277°
2026-04-22 04:14 22.25019 118.23634 37932 ft 423 kts 277°
2026-04-22 04:15 22.25742 118.17337 37928 ft 423 kts 277°
2026-04-22 04:15 22.26467 118.11046 37926 ft 423 kts 277°
2026-04-22 04:16 22.27504 118.01590 37929 ft 422 kts 277°
2026-04-22 04:17 22.28207 117.95294 37931 ft 422 kts 277°
2026-04-22 04:17 22.28935 117.89002 37931 ft 422 kts 277°
2026-04-22 04:18 22.29654 117.82711 37932 ft 422 kts 277°
2026-04-22 04:18 22.30364 117.76420 37936 ft 421 kts 277°
2026-04-22 04:19 22.31074 117.70146 37933 ft 421 kts 277°
2026-04-22 04:19 22.31789 117.63874 37935 ft 421 kts 277°
2026-04-22 04:20 22.32478 117.57722 37931 ft 421 kts 277°
2026-04-22 04:20 22.33185 117.51321 37928 ft 420 kts 276°
2026-04-22 04:21 22.33244 117.45022 37928 ft 420 kts 269°
2026-04-22 04:21 22.33126 117.38752 37925 ft 420 kts 269°
2026-04-22 04:22 22.33013 117.32435 37925 ft 420 kts 269°
2026-04-22 04:22 22.32900 117.26126 37923 ft 420 kts 269°
2026-04-22 04:23 22.32783 117.19806 37923 ft 421 kts 269°
2026-04-22 04:23 22.32664 117.13488 37922 ft 421 kts 269°
2026-04-22 04:24 22.32546 117.07166 37924 ft 421 kts 269°
2026-04-22 04:24 22.32420 117.00851 37923 ft 421 kts 269°
2026-04-22 04:25 22.32289 116.94529 37921 ft 421 kts 269°
2026-04-22 04:25 22.32156 116.88249 37923 ft 421 kts 269°
2026-04-22 04:26 22.32024 116.81923 37922 ft 421 kts 269°
2026-04-22 04:26 22.31887 116.75592 37925 ft 421 kts 269°
2026-04-22 04:27 22.31746 116.69264 37921 ft 421 kts 269°
2026-04-22 04:27 22.31606 116.62931 37922 ft 422 kts 269°
2026-04-22 04:28 22.31468 116.56598 37921 ft 422 kts 269°
2026-04-22 04:28 22.31330 116.50269 37921 ft 422 kts 269°
2026-04-22 04:29 22.31182 116.43933 37921 ft 422 kts 269°
2026-04-22 04:29 22.31023 116.37602 37926 ft 422 kts 269°
2026-04-22 04:30 22.30866 116.31217 37508 ft 431 kts 269°
2026-04-22 04:30 22.30788 116.27986 37015 ft 429 kts 269°
2026-04-22 04:30 22.30709 116.24777 36536 ft 428 kts 269°
2026-04-22 04:30 22.30633 116.21558 36031 ft 428 kts 269°
2026-04-22 04:31 22.30556 116.18344 35474 ft 429 kts 269°
2026-04-22 04:31 22.30477 116.15116 34884 ft 430 kts 269°
2026-04-22 04:31 22.30398 116.11909 34173 ft 435 kts 269°
2026-04-22 04:31 22.30315 116.08589 33346 ft 439 kts 269°
2026-04-22 04:32 22.30229 116.05287 32577 ft 441 kts 269°
2026-04-22 04:32 22.30139 116.02028 32160 ft 439 kts 269°
2026-04-22 04:32 22.30047 115.98730 31639 ft 439 kts 269°
2026-04-22 04:32 22.29958 115.95432 31125 ft 440 kts 269°
2026-04-22 04:33 22.29872 115.92130 30600 ft 438 kts 269°
2026-04-22 04:33 22.29787 115.88853 30083 ft 435 kts 269°
2026-04-22 04:33 22.29702 115.85605 29485 ft 432 kts 269°
2026-04-22 04:33 22.29614 115.82377 28931 ft 427 kts 269°
2026-04-22 04:34 22.29523 115.79147 28383 ft 422 kts 269°
2026-04-22 04:34 22.29437 115.76033 27852 ft 418 kts 269°
2026-04-22 04:34 22.29353 115.72913 27327 ft 414 kts 269°
2026-04-22 04:34 22.29274 115.69784 26794 ft 410 kts 269°
2026-04-22 04:35 22.29198 115.66723 26274 ft 406 kts 268°
2026-04-22 04:35 22.29121 115.63695 25789 ft 402 kts 268°
2026-04-22 04:35 22.29041 115.60689 25300 ft 398 kts 268°
2026-04-22 04:35 22.28958 115.57712 24831 ft 395 kts 268°
2026-04-22 04:36 22.28873 115.54763 24372 ft 392 kts 268°
2026-04-22 04:36 22.28787 115.51822 23909 ft 390 kts 268°
2026-04-22 04:36 22.28704 115.48900 23452 ft 388 kts 268°
2026-04-22 04:36 22.28623 115.46035 22959 ft 386 kts 268°
2026-04-22 04:37 22.28538 115.43144 22513 ft 383 kts 268°
2026-04-22 04:37 22.28456 115.40280 22055 ft 380 kts 268°
2026-04-22 04:37 22.28376 115.37443 21597 ft 377 kts 268°
2026-04-22 04:37 22.28295 115.34619 21128 ft 375 kts 268°
2026-04-22 04:38 22.28214 115.31818 20664 ft 372 kts 268°
2026-04-22 04:38 22.28132 115.29024 20186 ft 371 kts 268°
2026-04-22 04:38 22.28051 115.26254 19706 ft 369 kts 268°
2026-04-22 04:38 22.27965 115.23486 19220 ft 367 kts 268°
2026-04-22 04:39 22.27878 115.20742 18732 ft 366 kts 268°
2026-04-22 04:39 22.27793 115.18004 18247 ft 364 kts 268°
2026-04-22 04:39 22.27709 115.15277 17703 ft 362 kts 268°
2026-04-22 04:39 22.27652 115.13488 17384 ft 360 kts 268°
2026-04-22 04:40 22.27565 115.10798 16899 ft 356 kts 268°
2026-04-22 04:40 22.27479 115.08141 16423 ft 353 kts 268°
2026-04-22 04:40 22.27396 115.05509 15949 ft 350 kts 267°
2026-04-22 04:40 22.27315 115.02890 15472 ft 347 kts 267°
2026-04-22 04:41 22.27237 115.00300 15005 ft 344 kts 267°
2026-04-22 04:41 22.27156 114.97734 14536 ft 341 kts 267°
2026-04-22 04:41 22.27073 114.95193 14073 ft 338 kts 267°
2026-04-22 04:41 22.26990 114.92667 13602 ft 335 kts 267°
2026-04-22 04:42 22.26908 114.90165 13109 ft 331 kts 267°
2026-04-22 04:42 22.26849 114.87695 12707 ft 326 kts 271°
2026-04-22 04:42 22.27249 114.85319 12457 ft 320 kts 283°
2026-04-22 04:42 22.27809 114.83004 12208 ft 318 kts 282°
2026-04-22 04:43 22.28364 114.80692 11953 ft 317 kts 282°
2026-04-22 04:43 22.28917 114.78395 11726 ft 316 kts 282°
2026-04-22 04:43 22.29476 114.76095 11486 ft 315 kts 282°
2026-04-22 04:43 22.30033 114.73807 11240 ft 315 kts 282°
2026-04-22 04:44 22.30588 114.71522 11002 ft 314 kts 282°
2026-04-22 04:44 22.31139 114.69247 10770 ft 316 kts 282°
2026-04-22 04:44 22.31694 114.66945 10532 ft 317 kts 282°
2026-04-22 04:44 22.32248 114.64647 10302 ft 316 kts 282°
2026-04-22 04:45 22.32803 114.62348 10068 ft 315 kts 282°
2026-04-22 04:45 22.33348 114.60076 9839 ft 308 kts 282°
2026-04-22 04:45 22.33881 114.57861 9721 ft 303 kts 282°
2026-04-22 04:45 22.34410 114.55658 9593 ft 303 kts 282°
2026-04-22 04:46 22.34935 114.53475 9464 ft 299 kts 282°
2026-04-22 04:46 22.35457 114.51307 9339 ft 297 kts 282°
2026-04-22 04:46 22.35975 114.49151 9198 ft 296 kts 282°
2026-04-22 04:46 22.36492 114.46997 8855 ft 297 kts 282°
2026-04-22 04:47 22.37013 114.44828 8462 ft 299 kts 282°
2026-04-22 04:47 22.37533 114.42656 8057 ft 298 kts 282°
2026-04-22 04:47 22.38052 114.40487 7656 ft 297 kts 282°
2026-04-22 04:47 22.38565 114.38332 7258 ft 296 kts 281°
2026-04-22 04:48 22.39073 114.36186 6857 ft 294 kts 281°
2026-04-22 04:48 22.39584 114.34042 6461 ft 295 kts 281°
2026-04-22 04:48 22.40099 114.31897 6049 ft 295 kts 280°
2026-04-22 04:48 22.40562 114.29719 5460 ft 299 kts 278°
2026-04-22 04:49 22.40966 114.27556 5237 ft 288 kts 277°
2026-04-22 04:49 22.41334 114.25464 5106 ft 279 kts 276°
2026-04-22 04:49 22.41684 114.23450 4975 ft 265 kts 276°
2026-04-22 04:49 22.42018 114.21538 4858 ft 252 kts 276°
2026-04-22 04:50 22.42184 114.19748 4745 ft 233 kts 258°
2026-04-22 04:50 22.41772 114.18150 4654 ft 212 kts 246°
2026-04-22 04:50 22.41283 114.16646 4549 ft 203 kts 247°
2026-04-22 04:50 22.40835 114.15240 4465 ft 196 kts 246°
2026-04-22 04:51 22.40402 114.13883 4202 ft 191 kts 246°
2026-04-22 04:51 22.39979 114.12554 4001 ft 185 kts 246°
2026-04-22 04:51 22.39553 114.11226 3815 ft 185 kts 246°
2026-04-22 04:51 22.39127 114.09900 3538 ft 187 kts 246°
2026-04-22 04:52 22.38705 114.08584 3273 ft 183 kts 246°
2026-04-22 04:52 22.38287 114.07288 3044 ft 183 kts 246°
2026-04-22 04:52 22.37871 114.05999 2808 ft 182 kts 246°
2026-04-22 04:52 22.37452 114.04693 2572 ft 182 kts 247°
2026-04-22 04:53 22.37035 114.03395 2326 ft 183 kts 247°
2026-04-22 04:53 22.36619 114.02098 2081 ft 182 kts 247°
2026-04-22 04:53 22.36210 114.00826 1828 ft 174 kts 246°
2026-04-22 04:53 22.35824 113.99619 1629 ft 167 kts 247°
2026-04-22 04:54 22.35445 113.98441 1389 ft 162 kts 248°
2026-04-22 04:54 22.35100 113.97367 1196 ft 146 kts 246°
2026-04-22 04:54 22.34781 113.96374 1007 ft 140 kts 245°
2026-04-22 04:54 22.34481 113.95389 821 ft 136 kts 247°
2026-04-22 04:55 22.34144 113.94429 659 ft 138 kts 246°
2026-04-22 04:55 22.33834 113.93447 448 ft 138 kts 247°
2026-04-22 04:55 22.33526 113.92475 299 ft 138 kts 245°
2026-04-22 04:55 22.33216 113.91505 103 ft 135 kts 246°
2026-04-22 04:56 22.32926 113.90597 37 ft 111 kts 249°
2026-04-22 04:56 22.32729 113.89986 37 ft 61 kts 251°
2026-04-22 04:56 22.32630 113.89694 37 ft 33 kts 243°
2026-04-22 04:56 22.32502 113.89541 35 ft 24 kts 219°
2026-04-22 04:57 22.32380 113.89503 37 ft 16 kts 166°
2026-04-22 04:57 22.32326 113.89587 37 ft 16 kts 81°
2026-04-22 04:57 22.32364 113.89704 37 ft 17 kts 71°
2026-04-22 04:57 22.32405 113.89831 37 ft 19 kts 71°
2026-04-22 04:58 22.32450 113.89971 37 ft 22 kts 71°
2026-04-22 04:58 22.32503 113.90134 37 ft 24 kts 70°
2026-04-22 04:58 22.32543 113.90286 37 ft 14 kts 106°
2026-04-22 04:58 22.32450 113.90337 37 ft 17 kts 161°
2026-04-22 04:59 22.32320 113.90386 37 ft 22 kts 161°
2026-04-22 04:59 22.32157 113.90448 37 ft 26 kts 161°
2026-04-22 04:59 22.31974 113.90516 37 ft 29 kts 161°
2026-04-22 04:59 22.31786 113.90587 37 ft 28 kts 160°
2026-04-22 05:00 22.31624 113.90648 37 ft 20 kts 161°
2026-04-22 05:00 22.31539 113.90605 37 ft 16 kts 250°
2026-04-22 05:00 22.31499 113.90483 36 ft 18 kts 251°
2026-04-22 05:00 22.31454 113.90343 36 ft 22 kts 251°
2026-04-22 05:01 22.31402 113.90185 36 ft 23 kts 250°
2026-04-22 05:01 22.31350 113.90020 36 ft 24 kts 251°
2026-04-22 05:01 22.31295 113.89853 36 ft 21 kts 251°
2026-04-22 05:01 22.31207 113.89808 37 ft 17 kts 160°
2026-04-22 05:02 22.31091 113.89852 37 ft 19 kts 161°
2026-04-22 05:02 22.30967 113.89898 37 ft 20 kts 161°
2026-04-22 05:02 22.30874 113.89967 37 ft 15 kts 95°
2026-04-22 05:02 22.30908 113.90082 37 ft 18 kts 71°
2026-04-22 05:03 22.30950 113.90214 37 ft 20 kts 71°
2026-04-22 05:03 22.30999 113.90366 37 ft 22 kts 71°
2026-04-22 05:03 22.31052 113.90528 61 ft 23 kts 70°
2026-04-22 05:03 22.31106 113.90697 37 ft 24 kts 71°
2026-04-22 05:04 22.31164 113.90875 37 ft 26 kts 71°
2026-04-22 05:04 22.31223 113.91060 37 ft 27 kts 71°
2026-04-22 05:04 22.31286 113.91252 38 ft 28 kts 71°
2026-04-22 05:04 22.31350 113.91451 36 ft 29 kts 70°
2026-04-22 05:05 22.31409 113.91635 37 ft 24 kts 71°
2026-04-22 05:05 22.31448 113.91759 35 ft 8 kts 78°
2026-04-22 05:05 22.31417 113.91806 36 ft 9 kts 160°
2026-04-22 05:05 22.31358 113.91797 37 ft 10 kts 235°
2026-04-22 05:06 22.31341 113.91748 37 ft 0 kts 251°
2026-04-22 05:06 22.31341 113.91747 37 ft 0 kts 251°